DW2147 Weather Reports


Display with metric or nautical units.
time (UTC)temp
F
wind
direction
speed
MPH
gust
MPH
rain 1hr
in
rain 24hr
in
rain mn
in
humidity
%
barometer
mb
20260508164036 62 0 5.0 15.0 0.00 0.00 0.00 44 1014.6
20260508163535 62 0 5.0 15.0 0.00 0.00 0.00 45 1014.6
20260508163305 62 0 5.0 14.0 0.00 0.00 0.00 45 1014.8
20260508162534 62 0 5.0 14.0 0.00 0.00 0.00 44 1014.6
20260508162034 62 0 5.0 13.0 0.00 0.00 0.00 45 1014.6
20260508161805 62 0 5.0 17.0 0.00 0.00 0.00 44 1014.5
20260508161032 62 35 7.0 17.0 0.00 0.00 0.00 43 1014.8
20260508160532 62 0 7.0 19.0 0.00 0.00 0.00 42 1014.8
20260508160032 62 0 5.0 19.0 0.00 0.00 0.00 43 1015.0
20260508155531 63 0 6.0 15.0 0.00 0.00 0.00 45 1014.9
20260508155031 62 0 7.0 15.0 0.00 0.00 0.00 43 1015.0
20260508154531 62 0 6.0 15.0 0.00 0.00 0.00 44 1014.9
20260508154030 62 248 6.0 19.0 0.00 0.00 0.00 44 1015.0
20260508153530 62 0 7.0 19.0 0.00 0.00 0.00 45 1015.0
20260508153030 62 0 6.0 16.0 0.00 0.00 0.00 44 1015.0
20260508152527 61 0 6.0 14.0 0.00 0.00 0.00 43 1015.0
20260508152028 61 0 6.0 14.0 0.00 0.00 0.00 47 1015.1
20260508151528 61 0 5.0 14.0 0.00 0.00 0.00 49 1015.0
20260508151028 61 0 5.0 12.0 0.00 0.00 0.00 46 1015.1
20260508150527 60 0 7.0 15.0 0.00 0.00 0.00 45 1015.3
20260508150027 60 0 8.0 19.0 0.00 0.00 0.00 49 1015.3
20260508145524 60 0 7.0 19.0 0.00 0.00 0.00 46 1015.4
20260508145023 60 0 6.0 14.0 0.00 0.00 0.00 46 1015.3
20260508144525 59 0 5.0 14.0 0.00 0.00 0.00 45 1015.3
20260508144023 59 0 5.0 13.0 0.00 0.00 0.00 49 1015.3
20260508143522 58 0 5.0 13.0 0.00 0.00 0.00 49 1015.3
20260508143253 58 0 5.0 11.0 0.00 0.00 0.00 48 1015.3
20260508142522 58 229 6.0 11.0 0.00 0.00 0.00 50 1015.2
20260508142019 58 0 6.0 11.0 0.00 0.00 0.00 52 1015.2
20260508141524 57 194 6.0 13.0 0.00 0.00 0.00 54 1015.1
20260508141021 56 0 6.0 13.0 0.00 0.00 0.00 53 1015.1
20260508140524 55 0 6.0 12.0 0.00 0.00 0.00 54 1015.1
20260508140519 56 0 6.0 13.0 0.00 0.00 0.00 54 1015.2
20260508135748 54 0 6.0 12.0 0.00 0.00 0.00 57 1015.1
20260508135018 53 0 5.0 11.0 0.00 0.00 0.00 56 1015.2
20260508134515 52 0 5.0 11.0 0.00 0.00 0.00 60 1015.2
20260508134020 51 189 6.0 12.0 0.00 0.00 0.00 59 1015.3
20260508134015 51 0 6.0 12.0 0.00 0.00 0.00 58 1015.2
20260508133015 51 0 6.0 11.0 0.00 0.00 0.00 58 1015.3
20260508132512 51 0 6.0 12.0 0.00 0.00 0.00 58 1015.3
20260508132012 51 0 5.0 12.0 0.00 0.00 0.00 59 1015.3
20260508131513 51 0 6.0 12.0 0.00 0.00 0.00 59 1015.2
20260508131010 50 211 6.0 12.0 0.00 0.00 0.00 60 1015.0
20260508130511 49 0 6.0 13.0 0.00 0.00 0.00 61 1015.1
20260508130009 49 0 8.0 13.0 0.00 0.00 0.00 61 1015.0
20260508125738 48 0 8.0 14.0 0.00 0.00 0.00 62 1015.1
20260508125009 48 0 8.0 15.0 0.00 0.00 0.00 62 1015.1
20260508124509 47 0 8.0 15.0 0.00 0.00 0.00 62 1014.9
20260508124008 47 202 7.0 12.0 0.00 0.00 0.00 62 1014.8
20260508123508 46 0 8.0 13.0 0.00 0.00 0.00 63 1014.8
20260508123006 46 0 8.0 14.0 0.00 0.00 0.00 63 1014.9
20260508122511 45 0 7.0 13.0 0.00 0.00 0.00 63 1014.8
20260508122505 46 0 8.0 14.0 0.00 0.00 0.00 63 1014.8
20260508121504 45 0 6.0 12.0 0.00 0.00 0.00 63 1014.5
20260508121003 45 0 7.0 13.0 0.00 0.00 0.00 63 1014.5
20260508120735 45 0 8.0 14.0 0.00 0.00 0.00 63 1014.4
20260508120002 45 0 7.0 14.0 0.00 0.00 0.00 63 1014.4
20260508115503 45 0 7.0 14.0 0.00 0.00 0.00 63 1014.3
20260508115000 45 0 7.0 14.0 0.00 0.00 0.00 64 1014.4
20260508114732 44 0 7.0 14.0 0.00 0.00 0.00 64 1014.8
20260508114007 44 0 7.0 14.0 0.00 0.00 0.00 63 1014.8
20260508113959 44 0 6.0 11.0 0.00 0.00 0.00 63 1014.6
20260508112957 44 0 6.0 11.0 0.00 0.00 0.00 63 1014.6
20260508112727 44 0 6.0 11.0 0.00 0.00 0.00 63 1014.6
20260508111957 44 0 6.0 11.0 0.00 0.00 0.00 63 1014.4
20260508111455 44 0 5.0 10.0 0.00 0.00 0.00 63 1014.4
20260508110955 44 0 5.0 11.0 0.00 0.00 0.00 63 1014.4
20260508110449 43 0 5.0 11.0 0.00 0.00 0.00 63 1014.3
20260508105949 43 0 6.0 12.0 0.00 0.00 0.00 63 1014.3
20260508105451 43 215 6.0 12.0 0.00 0.00 0.00 63 1014.4
20260508104949 43 0 6.0 13.0 0.00 0.00 0.00 63 1014.4
20260508104449 43 0 6.0 13.0 0.00 0.00 0.00 64 1014.3
20260508103948 43 0 6.0 11.0 0.00 0.00 0.00 64 1014.4
20260508103443 42 0 6.0 11.0 0.00 0.00 0.00 64 1014.2
20260508102942 42 0 6.0 11.0 0.00 0.00 0.00 64 1014.2
20260508102441 42 0 5.0 10.0 0.00 0.00 0.00 64 1014.2
20260508101942 42 0 4.0 9.0 0.00 0.00 0.00 64 1014.3
20260508101443 42 0 4.0 10.0 0.00 0.00 0.00 64 1014.1
20260508100943 42 0 4.0 10.0 0.00 0.00 0.00 64 1014.1
20260508100716 42 0 4.0 9.0 0.00 0.00 0.00 63 1014.0
20260508100441 42 0 4.0 8.0 0.00 0.00 0.00 63 1014.0
20260508095441 42 219 4.0 9.0 0.00 0.00 0.00 63 1013.9
20260508094937 42 0 5.0 11.0 0.00 0.00 0.00 64 1013.9
20260508094702 42 0 5.0 11.0 0.00 0.00 0.00 64 1013.9
20260508093930 41 0 5.0 9.0 0.00 0.00 0.00 65 1013.9
20260508093430 41 0 4.0 10.0 0.00 0.00 0.00 67 1014.0
20260508092928 40 0 4.0 10.0 0.00 0.00 0.00 68 1013.9
20260508092428 39 0 3.0 8.0 0.00 0.00 0.00 69 1013.9
20260508091928 39 0 2.0 5.0 0.00 0.00 0.00 70 1014.0
20260508091429 39 0 2.0 3.0 0.00 0.00 0.00 70 1014.0
20260508090929 38 0 1.0 3.0 0.00 0.00 0.00 70 1014.1
20260508090924 38 0 1.0 3.0 0.00 0.00 0.00 70 1013.9
20260508085925 38 170 1.0 4.0 0.00 0.00 0.00 70 1014.0
20260508085654 38 170 1.0 4.0 0.00 0.00 0.00 70 1014.1
20260508084923 38 169 1.0 2.0 0.00 0.00 0.00 70 1014.2
20260508084425 38 169 1.0 2.0 0.00 0.00 0.00 70 1014.0
20260508083920 38 169 1.0 2.0 0.00 0.00 0.00 70 1013.9
20260508083420 38 169 0.0 2.0 0.00 0.00 0.00 70 1013.9
20260508083152 38 169 1.0 2.0 0.00 0.00 0.00 70 1014.0
20260508082420 38 169 2.0 4.0 0.00 0.00 0.00 70 1014.0
20260508081919 38 169 1.0 4.0 0.00 0.00 0.00 70 1013.8
20260508081421 38 169 1.0 4.0 0.00 0.00 0.00 70 1013.9
20260508080915 38 169 2.0 5.0 0.00 0.00 0.00 70 1013.9
20260508080416 38 169 3.0 5.0 0.00 0.00 0.00 70 1013.9
20260508075915 38 169 3.0 5.0 0.00 0.00 0.00 70 1014.0
20260508075415 38 0 2.0 4.0 0.00 0.00 0.00 70 1014.0
20260508074916 38 171 2.0 4.0 0.00 0.00 0.00 70 1014.1
20260508074416 38 171 1.0 3.0 0.00 0.00 0.00 70 1014.2
20260508073911 38 171 1.0 2.0 0.00 0.00 0.00 70 1014.1
20260508073410 38 171 1.0 2.0 0.00 0.00 0.00 70 1014.1
20260508073155 38 171 1.0 2.0 0.00 0.00 0.00 71 1014.1
20260508072410 38 171 1.0 2.0 0.00 0.00 0.00 71 1014.0
20260508071910 38 171 1.0 2.0 0.00 0.00 0.00 71 1014.6
20260508071413 38 171 1.0 4.0 0.00 0.00 0.00 71 1014.1
20260508070904 38 171 1.0 4.0 0.00 0.00 0.00 71 1014.1
20260508070403 38 171 1.0 4.0 0.00 0.00 0.00 71 1014.1
20260508065903 38 171 1.0 4.0 0.00 0.00 0.00 71 1014.0
20260508065403 38 0 1.0 3.0 0.00 0.00 0.00 71 1014.1
20260508064902 38 0 1.0 3.0 0.00 0.00 0.00 71 1014.1
20260508064402 38 313 0.0 1.0 0.00 0.00 0.00 71 1014.2
20260508063857 38 313 0.0 2.0 0.00 0.00 0.00 71 1014.2
20260508063358 39 313 0.0 2.0 0.00 0.00 0.00 71 1014.2
20260508063131 39 313 0.0 2.0 0.00 0.00 0.00 71 1014.2
20260508062628 39 313 1.0 2.0 0.00 0.00 0.00 71 1014.3
20260508061900 39 0 0.0 2.0 0.00 0.00 0.00 71 1014.3
20260508061855 39 313 1.0 2.0 0.00 0.00 0.00 71 1014.3
20260508060852 39 314 0.0 0.0 0.00 0.00 0.00 71 1014.1
20260508060352 39 314 0.0 1.0 0.00 0.00 0.00 71 1014.2
20260508055854 40 0 1.0 2.0 0.00 0.00 0.00 71 1014.5
20260508055849 40 314 1.0 2.0 0.00 0.00 0.00 71 1014.3
20260508055121 40 0 0.0 2.0 0.00 0.00 0.00 70 1014.5
20260508054350 40 0 0.0 0.0 0.00 0.00 0.00 70 1014.5
20260508054121 40 314 0.0 0.0 0.00 0.00 0.00 70 1014.6
20260508053346 40 315 0.0 0.0 0.00 0.00 0.00 70 1014.6
20260508052844 40 315 0.0 0.0 0.00 0.00 0.00 70 1014.6
20260508052345 41 315 0.0 0.0 0.00 0.00 0.00 69 1014.8
20260508051844 41 316 0.0 0.0 0.00 0.00 0.00 68 1014.6
20260508051342 41 315 0.0 0.0 0.00 0.00 0.00 68 1014.6
20260508050841 41 314 0.0 0.0 0.00 0.00 0.00 67 1014.6
20260508050335 42 314 0.0 0.0 0.00 0.00 0.00 67 1014.6
20260508045833 42 315 0.0 0.0 0.00 0.00 0.00 67 1014.6
20260508045332 42 315 0.0 0.0 0.00 0.00 0.00 67 1014.5
20260508044831 42 315 0.0 0.0 0.00 0.00 0.00 67 1014.5
20260508044330 43 0 0.0 0.0 0.00 0.00 0.00 66 1014.6
20260508043824 43 0 0.0 0.0 0.00 0.00 0.00 66 1014.5
20260508043322 43 0 0.0 0.0 0.00 0.00 0.00 66 1014.5
20260508042820 43 0 0.0 0.0 0.00 0.00 0.00 66 1014.4
20260508042318 44 0 0.0 0.0 0.00 0.00 0.00 65 1014.4
20260508041817 44 0 0.0 0.0 0.00 0.00 0.00 64 1014.2
20260508041316 44 0 0.0 0.0 0.00 0.00 0.00 63 1014.3
20260508040814 45 0 0.0 0.0 0.00 0.00 0.00 63 1014.2
20260508040314 45 0 0.0 0.0 0.00 0.00 0.00 62 1014.1
20260508035814 45 0 0.0 0.0 0.00 0.00 0.00 62 1014.1
20260508035313 45 0 0.0 0.0 0.00 0.00 0.00 61 1014.3
20260508034811 46 0 0.0 0.0 0.00 0.00 0.00 61 1014.2
20260508034304 46 0 0.0 0.0 0.00 0.00 0.00 59 1014.2
20260508033802 47 0 0.0 0.0 0.00 0.00 0.00 58 1014.2
20260508033301 47 0 0.0 0.0 0.00 0.00 0.00 58 1014.2
20260508032758 47 0 0.0 0.0 0.00 0.00 0.00 57 1014.1
20260508032257 48 0 0.0 0.0 0.00 0.00 0.00 57 1014.0
20260508031750 48 0 0.0 0.0 0.00 0.00 0.00 56 1014.0
20260508031248 48 0 0.0 0.0 0.00 0.00 0.00 55 1014.0
20260508031018 49 0 0.0 0.0 0.00 0.00 0.00 56 1014.0
20260508030245 49 0 0.0 0.0 0.00 0.00 0.00 55 1014.0
20260508025744 49 0 0.0 0.0 0.00 0.00 0.00 54 1013.9
20260508025240 50 0 0.0 1.0 0.00 0.00 0.00 53 1014.0
20260508025236 49 0 0.0 0.0 0.00 0.00 0.00 53 1013.9
20260508024238 50 0 0.0 0.0 0.00 0.00 0.00 52 1013.8
20260508024233 50 0 0.0 1.0 0.00 0.00 0.00 53 1013.9
20260508023231 51 314 0.0 0.0 0.00 0.00 0.00 52 1013.7
20260508022726 51 0 0.0 1.0 0.00 0.00 0.00 51 1013.8
20260508022224 51 315 0.0 2.0 0.00 0.00 0.00 51 1013.6
20260508021726 52 0 1.0 2.0 0.00 0.00 0.00 50 1013.5
20260508021458 52 0 1.0 3.0 0.00 0.00 0.00 50 1013.4
20260508021346 52 324 2.0 6.0 0.00 0.00 0.00 49 1013.2
20260508020724 52 316 1.0 4.0 0.00 0.00 0.00 49 1013.2
20260508015717 52 0 1.0 6.0 0.00 0.00 0.00 48 1013.1
20260508015218 53 0 1.0 6.0 0.00 0.00 0.00 47 1013.2
20260508014717 53 302 2.0 4.0 0.00 0.00 0.00 47 1013.1
20260508014217 53 0 3.0 8.0 0.00 0.00 0.00 47 1013.1
20260508013718 53 0 4.0 10.0 0.00 0.00 0.00 46 1013.1
20260508013215 53 297 3.0 10.0 0.00 0.00 0.00 45 1013.0
20260508012714 54 0 2.0 6.0 0.00 0.00 0.00 45 1013.0
20260508012446 54 0 2.0 6.0 0.00 0.00 0.00 45 1012.8
20260508011714 54 0 2.0 6.0 0.00 0.00 0.00 44 1012.7
20260508011213 54 0 2.0 6.0 0.00 0.00 0.00 43 1012.6
20260508010714 54 340 2.0 9.0 0.00 0.00 0.00 44 1012.6
20260508010215 55 19 3.0 9.0 0.00 0.00 0.00 43 1012.6
20260508005714 55 0 3.0 9.0 0.00 0.00 0.00 43 1012.6
20260508005213 55 205 1.0 5.0 0.00 0.00 0.00 44 1012.5
20260508004944 55 0 1.0 5.0 0.00 0.00 0.00 44 1012.4
20260508004214 55 305 1.0 5.0 0.00 0.00 0.00 43 1012.4
20260508003712 55 259 1.0 9.0 0.00 0.00 0.00 44 1012.3
20260508003210 56 290 2.0 9.0 0.00 0.00 0.00 43 1012.2
20260508002710 56 0 2.0 6.0 0.00 0.00 0.00 43 1012.3
20260508002211 56 0 2.0 6.0 0.00 0.00 0.00 43 1012.2
20260508001707 56 232 2.0 6.0 0.00 0.00 0.00 43 1012.0
20260508001208 56 0 2.0 4.0 0.00 0.00 0.00 44 1012.0
20260508000709 57 0 2.0 4.0 0.00 0.00 0.00 43 1012.0
20260508000205 57 67 2.0 5.0 0.00 0.00 0.00 42 1011.9
20260507235704 57 0 2.0 5.0 0.00 0.00 0.00 42 1012.0
20260507235204 57 0 2.0 5.0 0.00 0.00 0.00 42 1011.9
20260507234933 57 0 2.0 5.0 0.00 0.00 0.00 41 1011.8
20260507234201 58 0 2.0 8.0 0.00 0.00 0.00 42 1011.8
20260507233657 58 342 3.0 8.0 0.00 0.00 0.00 40 1011.9
20260507233428 58 0 3.0 8.0 0.00 0.00 0.00 41 1011.7
20260507232656 58 0 3.0 8.0 0.00 0.00 0.00 41 1011.7
20260507232157 58 0 3.0 9.0 0.00 0.00 0.00 39 1011.7
20260507231656 58 0 3.0 9.0 0.00 0.00 0.00 39 1011.6
20260507231153 58 9 5.0 12.0 0.00 0.00 0.00 39 1011.6
20260507230654 59 0 6.0 12.0 0.00 0.00 0.00 39 1011.7
20260507230156 59 0 4.0 13.0 0.00 0.00 0.00 38 1011.6
20260507225654 59 0 4.0 13.0 0.00 0.00 0.00 38 1011.6
20260507225423 59 94 4.0 13.0 0.00 0.00 0.00 38 1011.4
20260507224923 59 235 4.0 10.0 0.00 0.00 0.00 38 1011.3
20260507224153 59 0 3.0 10.0 0.00 0.00 0.00 38 1011.4
20260507223651 60 27 3.0 9.0 0.00 0.00 0.00 38 1011.3
20260507223152 60 28 4.0 10.0 0.00 0.00 0.00 38 1011.3
20260507222650 60 25 3.0 10.0 0.00 0.00 0.00 38 1011.3
20260507222150 60 0 3.0 9.0 0.00 0.00 0.00 39 1011.2
20260507221650 60 333 4.0 11.0 0.00 0.00 0.00 37 1011.2
20260507221419 61 0 6.0 14.0 0.00 0.00 0.00 36 1011.3
20260507220649 61 36 6.0 14.0 0.00 0.00 0.00 36 1011.2
20260507220147 61 0 4.0 12.0 0.00 0.00 0.00 36 1011.2
20260507215644 61 0 4.0 12.0 0.00 0.00 0.00 38 1011.1
20260507215144 61 0 5.0 13.0 0.00 0.00 0.00 39 1011.0
20260507214644 61 0 6.0 17.0 0.00 0.00 0.00 36 1011.0
20260507214144 61 0 6.0 17.0 0.00 0.00 0.00 36 1011.0
20260507213643 61 0 4.0 13.0 0.00 0.00 0.00 38 1011.1
20260507213143 61 0 5.0 13.0 0.00 0.00 0.00 37 1010.9
20260507212642 61 334 5.0 14.0 0.00 0.00 0.00 37 1010.9
20260507212142 62 0 5.0 14.0 0.00 0.00 0.00 38 1011.0
20260507211913 61 0 5.0 12.0 0.00 0.00 0.00 40 1010.9
20260507211143 61 342 6.0 15.0 0.00 0.00 0.00 37 1010.9
20260507210641 60 0 7.0 15.0 0.00 0.00 0.00 39 1010.9
20260507210140 60 0 6.0 14.0 0.00 0.00 0.00 39 1010.7
20260507205639 60 0 6.0 14.0 0.00 0.00 0.00 40 1010.7
20260507205136 60 0 7.0 14.0 0.00 0.00 0.00 40 1010.6
20260507204635 60 81 7.0 15.0 0.00 0.00 0.00 39 1010.7
20260507204136 60 0 8.0 15.0 0.00 0.00 0.00 39 1010.6
20260507203906 60 322 8.0 15.0 0.00 0.00 0.00 38 1010.7
20260507203405 60 0 6.0 14.0 0.00 0.00 0.00 40 1010.7
20260507202636 61 0 5.0 14.0 0.00 0.00 0.00 39 1010.8
20260507202134 62 0 6.0 14.0 0.00 0.00 0.00 38 1010.9
20260507201633 62 0 7.0 15.0 0.00 0.00 0.00 40 1011.0
20260507201133 62 0 6.0 15.0 0.00 0.00 0.00 39 1010.7
20260507200630 62 0 5.0 14.0 0.00 0.00 0.00 39 1010.9
20260507200131 61 0 5.0 14.0 0.00 0.00 0.00 39 1010.9
20260507195631 62 0 5.0 14.0 0.00 0.00 0.00 39 1011.1
20260507195130 62 342 5.0 11.0 0.00 0.00 0.00 41 1011.2
20260507194628 62 17 5.0 13.0 0.00 0.00 0.00 42 1011.4
20260507194400 62 0 5.0 13.0 0.00 0.00 0.00 40 1011.6
20260507193628 62 0 5.0 14.0 0.00 0.00 0.00 42 1011.6
20260507193401 61 190 5.0 14.0 0.00 0.00 0.00 44 1011.6
20260507192630 61 0 5.0 12.0 0.00 0.00 0.00 42 1011.6
20260507192126 60 280 6.0 16.0 0.00 0.00 0.00 41 1011.3
20260507191856 61 0 6.0 16.0 0.00 0.00 0.00 40 1011.4
20260507191356 61 9 4.0 16.0 0.00 0.00 0.00 41 1011.4
20260507190626 61 0 3.0 9.0 0.00 0.00 0.00 45 1011.6
20260507190123 60 0 4.0 13.0 0.00 0.00 0.00 42 1011.4
20260507185624 60 0 5.0 13.0 0.00 0.00 0.00 42 1011.6
20260507185401 61 0 4.0 11.0 0.00 0.00 0.00 42 1011.6
20260507185124 60 0 5.0 11.0 0.00 0.00 0.00 42 1011.4
20260507183620 61 0 5.0 15.0 0.00 0.00 0.00 40 1011.9
20260507183120 62 0 6.0 15.0 0.00 0.00 0.00 40 1011.9
20260507182620 61 0 5.0 15.0 0.00 0.00 0.00 41 1011.8
20260507182119 61 0 5.0 15.0 0.00 0.00 0.00 43 1011.7
20260507181619 61 0 3.0 10.0 0.00 0.00 0.00 41 1011.8
20260507181351 61 348 5.0 13.0 0.00 0.00 0.00 40 1011.8
20260507181243 62 196 6.0 13.0 0.00 0.00 0.00 40 1011.9
20260507180120 62 251 4.0 10.0 0.00 0.00 0.00 39 1011.9
20260507175619 61 0 3.0 10.0 0.00 0.00 0.00 43 1011.8
20260507175119 61 0 3.0 9.0 0.00 0.00 0.00 41 1011.7
20260507174619 61 210 3.0 8.0 0.00 0.00 0.00 41 1011.9
20260507174117 61 164 4.0 10.0 0.00 0.00 0.00 40 1012.0
20260507173618 62 0 4.0 10.0 0.00 0.00 0.00 40 1012.1
20260507173350 61 0 4.0 11.0 0.00 0.00 0.00 43 1012.3
20260507172618 61 0 4.0 11.0 0.00 0.00 0.00 41 1012.3
20260507172118 60 0 4.0 10.0 0.00 0.00 0.00 46 1012.3
20260507171617 60 0 3.0 10.0 0.00 0.00 0.00 44 1012.2
20260507171117 58 210 4.0 8.0 0.00 0.00 0.00 49 1012.3
20260507170616 58 0 4.0 10.0 0.00 0.00 0.00 43 1012.1
20260507170117 58 277 3.0 10.0 0.00 0.00 0.00 43 1012.2
20260507165617 57 60 3.0 9.0 0.00 0.00 0.00 48 1012.4
20260507165117 57 0 3.0 9.0 0.00 0.00 0.00 44 1012.4
20260507164614 57 0 3.0 8.0 0.00 0.00 0.00 44 1012.5